TimeCDT,TemperatureF,Dew PointF,Humidity,Sea Level PressureIn,VisibilityMPH,Wind Direction,Wind SpeedMPH,Gust SpeedMPH,PrecipitationIn,Events,Conditions,WindDirDegrees,DateUTC
12:54 AM,66.0,57.9,75,29.99,10.0,SSE,9.2,-,N/A,,Clear,160,2012-03-17 05:54:00
1:54 AM,64.9,57.9,78,29.99,10.0,SSE,9.2,-,N/A,,Clear,160,2012-03-17 06:54:00
2:54 AM,64.0,57.9,80,29.99,10.0,SSE,8.1,-,N/A,,Clear,160,2012-03-17 07:54:00
3:54 AM,63.0,57.9,84,29.98,10.0,SSE,6.9,-,N/A,,Clear,160,2012-03-17 08:54:00
4:54 AM,64.0,59.0,84,29.99,10.0,South,8.1,-,N/A,,Clear,170,2012-03-17 09:54:00
5:54 AM,62.1,59.0,90,29.99,10.0,South,5.8,-,N/A,,Clear,170,2012-03-17 10:54:00
6:54 AM,60.1,57.0,90,30.01,7.0,South,4.6,-,N/A,,Clear,170,2012-03-17 11:54:00
7:54 AM,62.1,59.0,90,30.01,6.0,South,4.6,-,N/A,,Clear,170,2012-03-17 12:54:00
8:54 AM,66.0,60.1,81,30.02,9.0,South,8.1,-,N/A,,Clear,170,2012-03-17 13:54:00
9:54 AM,69.1,60.1,73,30.02,10.0,South,11.5,-,N/A,,Clear,190,2012-03-17 14:54:00
10:54 AM,73.0,61.0,66,30.01,10.0,SSW,11.5,-,N/A,,Clear,200,2012-03-17 15:54:00
11:54 AM,75.9,61.0,60,29.99,10.0,South,9.2,18.4,N/A,,Clear,170,2012-03-17 16:54:00
1:54 PM,75.9,59.0,56,29.95,10.0,South,16.1,24.2,N/A,,Mostly Cloudy,190,2012-03-17 18:54:00
2:54 PM,75.0,59.0,57,29.92,10.0,South,15.0,-,N/A,,Clear,180,2012-03-17 19:54:00
3:54 PM,71.1,54.0,55,29.95,10.0,South,6.9,-,N/A,,Clear,190,2012-03-17 20:54:00
4:54 PM,70.0,51.1,51,29.95,10.0,South,12.7,20.7,N/A,,Partly Cloudy,190,2012-03-17 21:54:00
5:54 PM,69.1,51.1,53,29.93,10.0,SE,6.9,-,N/A,,Clear,140,2012-03-17 22:54:00
6:54 PM,66.9,50.0,54,29.93,10.0,South,10.4,-,N/A,,Clear,180,2012-03-17 23:54:00
7:54 PM,64.0,52.0,65,29.93,10.0,SSE,9.2,-,N/A,,Clear,160,2012-03-18 00:54:00
8:54 PM,63.0,52.0,67,29.94,10.0,South,9.2,-,N/A,,Clear,170,2012-03-18 01:54:00
9:54 PM,61.0,52.0,72,29.96,10.0,SSE,5.8,-,N/A,,Scattered Clouds,160,2012-03-18 02:54:00
10:54 PM,61.0,53.1,75,29.96,10.0,SSE,6.9,-,N/A,,Scattered Clouds,160,2012-03-18 03:54:00
11:54 PM,60.1,54.0,80,29.96,10.0,SSE,5.8,-,N/A,,Overcast,150,2012-03-18 04:54:00